Location: Lake Arresoe
(56.0000°N, 12.5000°E)
Time: 11:10:09
(UTC+02:00)

FENGYUN 1C DEB - Pass Details

Date: 02 February 2022
Orbit: 673 x 853 km, 98.9° (Epoch: 15 May)

Event Time Altitude Azimuth Distance (km) Brightness Sun altitude
Rises 21:04:05 0° 13° (NNE) 3,221 ? -35.6°
Enters shadow 21:04:51 - 11° (N) 2,932 ? -35.7°
Exits shadow 21:12:04 30° 280° (W) 1,419 ? -36.6°
Drops below altitude 10° 21:15:41 10° 241° (WSW) 2,409 ? -37.1°
Sets 21:18:17 0° 232° (SW) 3,362 ? -37.4°
